Location: Casone le Fosse
(44.6547°N, 12.1103°E)
Time: 04:09:15
(UTC+00:00)

USA 281 - Pass Details

Date: 29 October 2020
Orbit: 1078 x 1081 km, 106.0° (Epoch: 28 November)

Event Time Altitude Azimuth Distance (km) Brightness Sun altitude
Rises 16:43:17 0° 157° (SSE) 3,861 6.0 -7.5°
Reaches altitude 10° 16:45:47 10° 158° (SSE) 2,909 5.4 -8.0°
Maximum altitude 16:52:19 81° 245° (WSW) 1,097 3.4 -9.1°
Drops below altitude 10° 16:58:56 10° 334° (NNW) 2,929 5.7 -10.3°
Sets 17:01:28 0° 336° (NNW) 3,889 6.4 -10.7°
